Date,TemperatureHighF,TemperatureAvgF,TemperatureLowF,DewpointHighF,DewpointAvgF,DewpointLowF,HumidityHigh,HumidityAvg,HumidityLow,PressureMaxIn,PressureMinIn,WindSpeedMaxMPH,WindSpeedAvgMPH,GustSpeedMaxMPH,PrecipitationSumIn
2013-4-1,41,35,28,28,21,17,78,57,41,30.21,29.91,9,3,20,0.00
2013-4-2,45,33,20,23,18,14,90,58,29,30.32,30.21,6,2,17,0.00
2013-4-3,48,36,23,22,19,14,86,54,28,30.46,30.32,5,1,11,0.00
2013-4-4,60,42,25,33,24,19,84,53,24,30.32,29.98,5,1,12,0.00
2013-4-5,55,44,34,36,28,20,88,56,29,30.19,30.01,7,2,15,0.00
2013-4-6,70,52,35,48,35,24,82,54,30,30.11,29.62,10,4,25,0.20
2013-4-7,66,53,40,49,43,37,93,70,45,29.93,29.67,5,1,15,0.20
2013-4-8,73,59,44,57,51,37,97,77,50,29.90,29.60,7,2,17,0.56
2013-4-9,77,61,47,62,53,42,92,78,55,29.90,29.75,7,3,16,0.02
2013-4-10,47,44,41,44,42,40,95,92,86,29.90,29.75,8,4,17,1.29
2013-4-11,51,45,39,47,42,34,97,92,84,29.80,29.57,8,2,19,1.04
2013-4-12,42,39,36,38,34,32,91,83,75,29.89,29.60,6,2,18,0.02
2013-4-13,49,41,34,39,32,28,90,73,53,29.98,29.89,6,2,17,0.01
2013-4-14,73,56,42,53,44,36,83,66,45,29.96,29.61,8,4,18,0.00
2013-4-15,62,55,46,55,50,42,93,83,63,29.98,29.64,7,2,18,0.35
2013-4-16,54,47,41,44,39,35,93,75,53,30.23,29.93,6,2,12,0.27
2013-4-17,53,47,43,52,42,35,97,84,70,30.24,29.75,9,3,19,2.29
2013-4-18,60,54,49,59,53,48,98,97,93,29.77,29.52,6,2,22,3.60
2013-4-19,38,37,35,31,30,28,83,76,74,29.98,29.74,6,4,19,0.00
2013-4-20,47,38,30,31,28,24,91,68,44,30.33,29.98,5,2,12,0.00
2013-4-21,55,51,45,39,37,32,73,59,51,30.45,30.30,9,4,16,0.00
2013-4-22,66,53,37,45,39,33,88,61,38,30.30,30.00,7,2,16,0.00
2013-4-23,57,47,37,50,44,35,94,89,66,30.01,29.87,8,2,15,0.71
2013-4-24,51,42,36,36,34,28,94,75,48,30.15,29.94,6,2,16,0.40
2013-4-25,53,44,38,37,30,23,87,61,31,30.31,30.09,9,2,21,0.01
2013-4-26,65,52,36,49,41,32,90,70,53,30.33,30.24,7,2,19,0.00
2013-4-27,66,54,42,51,46,40,97,76,44,30.29,29.97,6,2,13,0.09
2013-4-28,64,56,52,56,53,50,97,90,72,29.97,29.80,3,1,10,0.12
2013-4-29,73,60,46,59,53,45,97,79,56,29.91,29.72,7,2,18,0.01
2013-4-30,84,70,58,63,58,55,89,68,42,29.91,29.74,7,3,20,0.00